Location: Caltech
(34.1382°N, 118.1253°W)
Time: 10:30:17
(UTC-07:00)

Iridium 12 - Visible Passes

Search period start: 29 April 2017 00:00
Search period end: 09 May 2017 00:00
Orbit: 776 x 779 km, 86.4° (Epoch: 27 April)

Date Brightness Start Highest point End Pass type
(mag) Time Alt. Az. Time Alt. Az. Time Alt. Az.
29 Apr 7.5 21:31:59 10° NE 21:33:27 14° ENE 21:33:27 14° ENE visible
29 Apr 7.2 23:11:01 10° NNW 23:13:56 31° NNW 23:13:56 31° NNW visible
30 Apr 6.5 22:37:19 10° N 22:40:44 42° N 22:40:44 42° N visible
01 May 6.5 22:04:01 10° NNE 22:07:33 35° NE 22:07:33 35° NE visible
01 May 8.0 23:46:02 10° NW 23:48:02 16° WNW 23:48:02 16° WNW visible
02 May 7.0 21:31:13 10° NNE 21:34:23 22° ENE 21:34:23 22° ENE visible
02 May 7.2 23:11:26 10° NNW 23:14:52 29° WNW 23:14:52 29° WNW visible
03 May 7.5 20:59:39 10° NE 21:01:13 12° ENE 21:01:13 12° ENE visible
03 May 6.2 22:37:29 10° N 22:41:43 53° NW 22:41:43 53° NW visible
04 May 5.7 22:03:57 10° N 22:08:34 61° NE 22:08:34 61° NE visible
04 May 8.2 23:47:53 10° WNW 23:49:03 11° WNW 23:49:03 11° WNW visible
05 May 6.3 21:30:49 10° NNE 21:35:26 34° E 21:35:26 34° E visible
05 May 7.5 23:12:04 10° NNW 23:15:55 22° W 23:15:55 22° W visible
06 May 7.0 20:58:18 10° NE 21:01:49 18° E 21:02:19 18° E visible
06 May 6.4 22:37:47 10° NNW 22:42:40 42° W 22:42:48 41° W visible
07 May 5.4 22:04:01 10° N 22:09:15 82° W 22:09:42 74° SSW visible
08 May 5.7 21:30:38 10° N 21:35:42 51° E 21:36:37 45° ESE visible
08 May 7.9 23:13:07 10° NW 23:15:53 15° W 23:17:07 14° W visible
